Regional Weather Roundup
Issued by NWS

Home | Current Version | Previous Version | Graphics & Text | Print | Product List | Glossary On
Versions: 1 2 3 4 5 6 7 8 9 10 11 12 13 14 15 16 17 18 19 20 21 22 23 24 25 26 27 28 29 30 31 32 33 34 35 36 37 38 39 40 41 42 43 44 45 46 47 48 49 50
042
ASUS43 KDTX 300010
RWRMI
MICHIGAN HOURLY REGIONAL WEATHER ROUNDUP
NATIONAL WEATHER SERVICE DETROIT/PONTIAC MI
800 PM EDT SAT APR 29 2017

NOTE: "FAIR" INDICATES FEW OR NO CLOUDS BELOW 12,000 FEET WITH NO
SIGNIFICANT WEATHER AND/OR OBSTRUCTION TO VISIBILITY.

MIZ047>049-052>055-059>063-066>070-074>076-081>083-300100-
SOUTHEAST LOWER MICHIGAN

CITY           SKY/WX    TMP DP  RH WIND       PRES   REMARKS
ADRIAN         CLOUDY    46  40  79 E12       30.18R
6HR MIN TEMP:  45; 6HR MAX TEMP:  48; 6HR PCP:  0.02;

ALMA           LGT RAIN  46  40  78 E9        30.22F
ANN ARBOR      CLOUDY    48  34  58 N10       30.20R
BAD AXE        CLOUDY    41  29  61 E5        30.27F
6HR MIN TEMP:  41; 6HR MAX TEMP:  46;

CARO           DRIZZLE   44  35  70 E3        30.25R
DETROIT CITY   CLOUDY    46  32  58 NE12      30.22F
6HR MIN TEMP:  44; 6HR MAX TEMP:  49; 6HR PCP: TRACE;

DETROIT        CLOUDY    47  33  58 NE12      30.21S
6HR MIN TEMP:  47; 6HR MAX TEMP:  50;

FLINT          CLOUDY    48  36  63 E10       30.22F
6HR MIN TEMP:  47; 6HR MAX TEMP:  55; 6HR PCP:  0.01;

GROSSE ILE     CLOUDY    45  32  61 NE12      30.20R
6HR MIN TEMP:  44; 6HR MAX TEMP:  46;

HILLSDALE      CLOUDY    46  37  71 E14       30.14F
HOWELL         CLOUDY    49  34  55 E12       30.20R
6HR MIN TEMP:  49; 6HR MAX TEMP:  52;


CITY           SKY/WX    TMP DP  RH WIND       PRES   REMARKS
JACKSON        CLOUDY    50  38  63 E13       30.17R
6HR MIN TEMP:  50; 6HR MAX TEMP:  52;

LAMBERTVILLE   CLOUDY    45  36  70 NE8       30.18R
6HR MIN TEMP:  43; 6HR MAX TEMP:  46;

LANSING        CLOUDY    48  35  60 NE9       30.21R
6HR MIN TEMP:  48; 6HR MAX TEMP:  54; 6HR PCP:  0.02;

LAPEER         CLOUDY    45  35  68 NE7       30.23F
6HR MIN TEMP:  45; 6HR MAX TEMP:  52;

MASON          CLOUDY    50  38  64 NE10      30.19R
MONROE         CLOUDY    45  32  60 NE13G18   30.19R
6HR MIN TEMP:  43; 6HR MAX TEMP:  47; 6HR PCP:  0.02;

MT. CLEMENS    CLOUDY    43  32  64 NE13      30.21F
6HR MIN TEMP:  43; 6HR MAX TEMP:  47;

PONTIAC        CLOUDY    47  33  58 NE8       30.21R
6HR MIN TEMP:  47; 6HR MAX TEMP:  50; 6HR PCP: TRACE;

PORT HOPE        N/A     42  33  70 NE10      30.26R
6HR MIN TEMP:  41; 6HR MAX TEMP:  43;

PORT HURON     CLOUDY    39  30  70 N12       30.24F WCI  32
TRI CITIES     LGT RAIN  45  38  76 E14       30.26R
6HR MIN TEMP:  45; 6HR MAX TEMP:  53; 6HR PCP: TRACE;

MIDLAND        LGT RAIN  45  35  68 E12G21    30.26R
6HR MIN TEMP:  45; 6HR MAX TEMP:  55;

TROY           CLOUDY    47  30  52 NE12      30.23F
SAGINAW HB     LGT RAIN  45  34  65 NE10      30.26R
$$
MIZ043>046-050>051-056>058-064>065-071>073-077>080-300100-
SOUTHWEST LOWER MICHIGAN

CITY           SKY/WX    TMP DP  RH WIND       PRES   REMARKS
BATTLE CREEK   CLOUDY    49  44  83 NE10      30.15S
6HR MIN TEMP:  49; 6HR MAX TEMP:  52; 6HR PCP:  0.09;

BENTON HARBOR  LGT RAIN  49  46  90 VRB6      30.13R
6HR MIN TEMP:  49; 6HR MAX TEMP:  54; 6HR PCP:  0.17;

BIG RAPIDS     MIX PCPN  48  35  60 NE3       30.22R
6HR MIN TEMP:  48; 6HR MAX TEMP:  52; 6HR PCP:  0.01;

COLDWATER      CLOUDY    49  43  77 E10       30.13S
6HR MIN TEMP:  49; 6HR MAX TEMP:  52;

FREMONT        LGT RAIN  48  38  66 E3        30.21R
HOLLAND        RAIN      48  44  86 NE6       30.19S FOG
6HR MIN TEMP:  48; 6HR MAX TEMP:  55; 6HR PCP:  0.17;

GRAND RAPIDS   LGT RAIN  47  42  83 E13       30.17R
6HR MIN TEMP:  47; 6HR MAX TEMP:  55; 6HR PCP:  0.06;

IONIA          LGT RAIN  46  38  73 NE14G22   30.19R
6HR MIN TEMP:  46; 6HR MAX TEMP:  54;

KALAMAZOO      CLOUDY    50  41  71 E9G17     30.14S
6HR MIN TEMP:  49; 6HR MAX TEMP:  53; 6HR PCP:  0.05;

LUDINGTON      CLOUDY    46  32  58 NE6       30.23R
6HR MIN TEMP:  45; 6HR MAX TEMP:  47;

MARSHALL       CLOUDY    51  38  62 E8        30.14F
6HR MIN TEMP:  50; 6HR MAX TEMP:  52;

MOUNT PLEASANT LGT RAIN  46  38  74 E9        30.22R
6HR MIN TEMP:  46; 6HR MAX TEMP:  56; 6HR PCP:  0.01;

MUSKEGON       LGT RAIN  49  43  80 E5        30.23R
6HR MIN TEMP:  49; 6HR MAX TEMP:  56; 6HR PCP:  0.04;

SOUTH HAVEN    RAIN      47  46  94 NE12      30.15R
$$
MIZ016>042-300100-
NORTHERN LOWER MICHIGAN

CITY           SKY/WX    TMP DP  RH WIND       PRES   REMARKS
ALPENA         CLOUDY    47  29  49 N10       30.25S
6HR MIN TEMP:  47; 6HR MAX TEMP:  51;

BEAVER ISLAND  CLOUDY    44  26  48 N10G16    30.27F
6HR MIN TEMP:  44; 6HR MAX TEMP:  51;

BELLAIRE       CLOUDY    46  26  44 N5        30.25R
6HR MIN TEMP:  46; 6HR MAX TEMP:  50;

CADILLAC       CLOUDY    44  30  58 N5        30.22R
CHARLEVOIX     MOCLDY    42  33  70 N12       30.27F
FRANKFORT      CLOUDY    45  27  48 NE6       30.26R
GAYLORD        CLOUDY    48  24  39 NE8       30.23S
6HR MIN TEMP:  48; 6HR MAX TEMP:  52;

GRAYLING       CLOUDY    48  25  40 NE9       30.23R
HARBOR SPRINGS CLOUDY    47  27  45 NE12      30.25S
HOUGHTON LAKE  CLOUDY    50  26  39 NE12      30.23R
6HR MIN TEMP:  50; 6HR MAX TEMP:  53;

MANISTEE       CLOUDY    46  30  53 NE7       30.25R
OSCODA         CLOUDY    48  28  44 NE9       30.24S
6HR MIN TEMP:  47; 6HR MAX TEMP:  52;

PELLSTON       MOCLDY    47  25  42 N15       30.27F
6HR MIN TEMP:  47; 6HR MAX TEMP:  54;

ROGERS CITY    CLOUDY    45  30  55 NW6       30.27S
TRAVERSE CITY  CLOUDY    44  30  57 E9        30.25R
6HR MIN TEMP:  43; 6HR MAX TEMP:  46;

$$
MIZ007>008-015-300100-
EASTERN UPPER MICHIGAN

CITY           SKY/WX    TMP DP  RH WIND       PRES   REMARKS
KINROSS        CLOUDY    37  26  64 NW21G30   30.28F WCI  26
6HR MIN TEMP:  37; 6HR MAX TEMP:  45;

MACKINAC ISLAN MOCLDY    43  28  56 N15       30.27S
6HR MIN TEMP:  43; 6HR MAX TEMP:  49;

NEWBERRY       PTCLDY    37  27  66 N8        30.30S WCI  31
6HR MIN TEMP:  37; 6HR MAX TEMP:  46;

S. S. MARIE    CLOUDY    41  27  57 NW9       30.28F
6HR MIN TEMP:  41; 6HR MAX TEMP:  47;

MUNISING         N/A     37  30  75 N13       30.33F WCI  29
6HR MIN TEMP:  37; 6HR MAX TEMP:  40;

$$
MIZ004>006-011>014-085-300100-
CENTRAL UPPER MICHIGAN

CITY           SKY/WX    TMP DP  RH WIND       PRES   REMARKS
MANISTIQUE     CLOUDY    42  26  54 N12G20    30.28F
6HR MIN TEMP:  42; 6HR MAX TEMP:  50;

ESCANABA       CLOUDY    45  23  42 NE13G22   30.27F
6HR MIN TEMP:  45; 6HR MAX TEMP:  51;

MENOMINEE      CLOUDY    45  31  58 E12       30.27R
6HR MIN TEMP:  44; 6HR MAX TEMP:  48;

SAWYER-GWINN   CLEAR     36  25  64 NE13      30.31F WCI  27
$$
MIZ001>003-009>011-084-300100-
WESTERN UPPER MICHIGAN

CITY           SKY/WX    TMP DP  RH WIND       PRES   REMARKS
IRON MOUNTAIN  CLOUDY    47  17  30 NE8G18    30.24F
6HR MIN TEMP:  47; 6HR MAX TEMP:  52;

HOUGHTON       PTCLDY    42  13  30 N7        30.33F
6HR MIN TEMP:  42; 6HR MAX TEMP:  47;

COPPER HARBOR    N/A     38  23  55 N7        30.35F WCI  33
6HR MIN TEMP:  38; 6HR MAX TEMP:  40;

IRONWOOD       CLOUDY    39  23  52 N6        30.29F WCI  35
6HR MIN TEMP:  39; 6HR MAX TEMP:  45;

$$

ABBREVIATIONS USED IN REMARKS
   TC - TEMPERATURE IN CELSIUS
  WCI - WIND CHILL INDEX
   HX - HEAT INDEX
  VSB - VISIBILITY





USA.gov is the U.S. government's official web portal to all federal, state and local government web resources and services.